Regional Weather Roundup
Issued by NWS

Home | Current Version | Previous Version | Text Only | Print | Product List | Glossary On
Versions: 1 2 3 4 5 6 7 8 9 10 11 12 13 14 15 16 17 18 19 20 21 22 23 24 25 26 27 28 29 30 31 32 33 34 35 36 37 38 39 40 41 42 43 44 45 46 47 48 49 50
385
ASUS44 KFWD 252310
RWRTX
NORTH TEXAS HOURLY WEATHER ROUNDUP
NATIONAL WEATHER SERVICE FORT WORTH TX
600 PM CDT MON SEP 25 2017

NOTE: "FAIR" INDICATES FEW OR NO CLOUDS BELOW 12,000 FEET WITH NO
SIGNIFICANT WEATHER AND/OR OBSTRUCTIONS TO VISIBILITY.

TXZ118-119-260000-
DALLAS/FORT WORTH METROPLEX

CITY           SKY/WX    TMP DP  RH WIND       PRES   REMARKS
DFW AIRPORT    MOSUNNY   91  61  36 S17       29.79R HX  91
DALLAS LOVE    MOSUNNY   90  61  37 SE18      29.79S HX  90
FTW MEACHAM    PTSUNNY   90  64  42 SE15      29.79R HX  91
DAL-EXECUTIVE  SUNNY     90  62  39 SE12      29.79S HX  90
FTW-ALLIANCE   PTSUNNY   88  62  41 SE10      29.79S
FTW-NAS-JRB    MOSUNNY   91  62  37 SE14      29.79S HX  91
FTW-SPINKS     MOSUNNY   90  63  40 SE8       29.81S HX  90
ARLINGTON      MOSUNNY   89  64  43 E12       29.80S HX  90
GRAND PRAIRIE  SUNNY     90  61  37 E9        29.81S
ADDISON        MOSUNNY   90  61  37 SE13G24   29.80S
MESQUITE       MOSUNNY   90  61  37 SE10      29.81S
LANCASTER      MOSUNNY   91  60  35 SE13      29.81S HX  90
$$

TXZ091>094-102>105-117-120-121-131>134-260000-
NORTH CENTRAL TEXAS

CITY           SKY/WX    TMP DP  RH WIND       PRES   REMARKS
SHRMAN/DENISON CLOUDY    87  64  46 SE12      29.84R
GAINESVILLE    CLOUDY    85  62  45 SE9       29.84R
BOWIE          CLOUDY    83  65  54 SE3       29.83R
BRIDGEPORT     CLOUDY    85  62  44 SE5       29.83R
DECATUR        CLOUDY    85  63  47 SE5       29.81S
DENTON         PTSUNNY   87  63  44 SE9       29.80S
MCKINNEY       SUNNY     88  66  48 SE8       29.81S HX  90
BONHAM         PTSUNNY   87  63  44 S13       29.83S
GREENVILLE     MOSUNNY   91  61  35 SE8       29.83R HX  91
ROCKWALL       MOSUNNY   89  65  46 S8        29.82R HX  90
TERRELL        MOSUNNY   90  62  39 SE8       29.82R HX  90
WAXAHACHIE     MOSUNNY   90  63  40 SE8G16    29.81S HX  90
CLEBURNE       MOSUNNY   90  64  43 SE16G23   29.82R HX  91
GRANBURY       MOSUNNY   89  61  39 SE9       29.81R
$$

TXZ083>090-098>101-113>116-127>130-139>142-154-155-260000-
WESTERN NORTH TEXAS

CITY           SKY/WX    TMP DP  RH WIND       PRES   REMARKS
WICHITA FALLS  LGT RAIN  77  69  76 SW6       29.83R
WF-KICKAPOO    CLOUDY    77  69  75 SW3       29.86R
VERNON         CLOUDY    76  67  73 S13       29.84S
ABILENE        MOSUNNY   72  70  93 SE13      29.85F
ABILENE-DYESS  CLOUDY    74  70  88 E9        29.83F
GRAHAM         RAIN      70  32  24 W3        29.85S
BRECKENRIDGE   LGT RAIN  72  71  96 CALM      29.87R
CISCO          DRIZZLE   72  70  94 NW6       29.88R
EASTLAND       LGT RAIN  71  70  96 NW6       29.86S
RANGER         LGT RAIN  71  70  98 NW5       29.86S
MINERAL WELLS  CLOUDY    86  62  44 SE9       29.80R
STEPHENVILLE   CLOUDY    85  61  43 SE7       29.84R
COMANCHE       RAIN      73  73 100 W9        29.84R
BROWNWOOD      RAIN      72  72 100 NW5       29.85S
COLEMAN        CLOUDY    73  70  90 NE6       29.84S
$$

TXZ143>147-156>162-174-175-260000-
CENTRAL TEXAS

CITY           SKY/WX    TMP DP  RH WIND       PRES   REMARKS
WACO           SUNNY     90  64  42 SE13G23   29.78S HX  91
WACO-TSTC      MOSUNNY   91  63  38 SE12G17   29.79S HX  92
WACO-MCGREGOR  PTSUNNY   89  66  46 SE18      29.79S HX  91
HILLSBORO      MOSUNNY   89  65  44 SE16      29.80S HX  91
CORSICANA      SUNNY     90  64  42 SE12      29.81S HX  91
MEXIA          MOSUNNY   88  65  45 SE10G21   29.80F HX  90
HEARNE         MOSUNNY   88  67  50 E6        29.80S HX  91
CAMERON        MOSUNNY   89  67  47 SE8       29.79S HX  92
TEMPLE         MOSUNNY   89  66  46 SE15      29.80S HX  91
KILLEEN        PTSUNNY   90  70  51 E15       29.79S HX  95
FORT HOOD      CLOUDY   N/A N/A N/A SE10      29.77S
GATESVILLE     MOSUNNY   86  64  48 SE12      29.82R
HAMILTON       PTSUNNY   87  63  44 SE15      29.82R
LAMPASAS       PTSUNNY   86  67  52 SE9       29.80R
$$

TXZ095>097-106>112-122>126-135>138-148>153-164>167-260000-
EAST TEXAS

CITY           SKY/WX    TMP DP  RH WIND       PRES   REMARKS
PARIS          MOSUNNY   86  67  52 SE10      29.84S
SULPHUR SPRNGS MOSUNNY   89  62  39 SE8       29.84S HX  90
MOUNT PLEASANT SUNNY     86  66  51 SE6       29.84S
GILMER         SUNNY     85  66  52 SE6       29.83S
MINEOLA        SUNNY     88  66  48 SE6G18    29.82S HX  90
TYLER          MOSUNNY   88  63  43 S13       29.83S
LONGVIEW       MOSUNNY   86  67  52 SE12      29.83S
MARSHALL       SUNNY     85  62  46 S3        29.86S
ATHENS         SUNNY     88  63  42 SE9       29.81R
PALESTINE      MOSUNNY   88  67  49 SE8       29.84R HX  91
JACKSONVILLE   MOSUNNY   85  65  50 SE6       29.86S
HENDERSON      SUNNY     85  67  54 SE9       29.85S
CENTER         CLEAR     87  70  56 E6        29.86S HX  91
NACOGDOCHES    MOSUNNY   85  69  58 E6        29.84F
LUFKIN         SUNNY     85  68  56 E8        29.82F
$$

SUPPLEMENTAL OBSERVATIONS (NWS FORT WORTH AREA)

CITY           SKY/WX    TMP DP  RH WIND       PRES   REMARKS
CADDO GRASSLND   N/A     88  66  48 SE2         N/A  HX  90
PAT MAYSE LAKE   N/A     86  64  48 SE6         N/A
GREENVILLE       N/A     90  63  40 SE8         N/A  HX  90
CEDAR HILL       N/A     90  61  37 SE7G15      N/A
LBJ GRASSLAND    N/A     86  63  45 SE7         N/A
POSSUM KINGDOM   N/A     72  68  88 NW5         N/A
GRANBURY         N/A    N/A N/A N/A SE10        N/A
MCGREGOR         N/A     88  64  45 SE10        N/A
TEMPLE           N/A     90  64  43 SE9         N/A  HX  91
$$

SUPPLEMENTAL OBSERVATIONS (NWS NORMAN AREA)

CITY           SKY/WX    TMP DP  RH WIND       PRES   REMARKS
GOODLETT         N/A     71  66  82 N9        29.85R
ODELL            N/A     76  70  82 SE15      29.84S
CROWELL          N/A     79  69  69 S14       29.84S
KNOX CITY        N/A     78  65  63 SE14      29.84S
SEYMOUR          N/A     73  68  83 S7        29.86R
MILLERS CREEK    N/A     73  68  83 SE7         N/A
$$

SUPPLEMENTAL OBSERVATIONS (NWS SAN ANGELO AREA)

CITY           SKY/WX    TMP DP  RH WIND       PRES   REMARKS
HASKELL          N/A     73  68  86 SE8       29.86S
THROCKMORTON     N/A     72  70  95 SE7       29.87S
STAMFORD         N/A     74  69  86 SE7       29.87R
CLYDE            N/A     70  68  93 E9        29.87F
HAMBY            N/A     72  68  88 SE8         N/A
IVIE RESERVOIR   N/A     75  70  83 NE8         N/A
COLORADO BEND    N/A     73  70  88 S10         N/A
$$

SUPPLEMENTAL OBSERVATIONS (NWS SHREVEPORT AREA)

CITY           SKY/WX    TMP DP  RH WIND       PRES   REMARKS
CLARKSVILLE      N/A     86  63  45 SE8         N/A
TEXARKANA        N/A     88  66  48 E3          N/A  HX  90
LINDEN           N/A     88  63  42 E5          N/A
GILMER           N/A     86  66  51 SE5         N/A
HENDERSON        N/A     86  66  51 SE7         N/A
N SABINE NF      N/A     82  72  69 MISG        N/A
S SABINE NF      N/A     82  70  65 E2          N/A
$$

SUPPLEMENTAL OBSERVATIONS ARE A COLLECTION OF AUTOMATED INSTRUMENTS
THAT ARE MAINTAINED BY A VARIETY OF FEDERAL AND STATE AGENCIES.
CERTAIN ELEMENTS...SUCH AS HUMIDITY VALUES AND SUSTAINED WIND
SPEEDS...MAY BE APPROXIMATED.





USA.gov is the U.S. government's official web portal to all federal, state and local government web resources and services.